Total_Precipitation_Accumulation
0.66 0.53 0.61 0.72 0.74 0.86 1.25 1.24 1.24 0.87 0.78 0.88 0.91 0.95 0.95 0.89 0.91 0.92 0.95 0.99 1.04 1.07 1.10 1.19 1.29 1.37 1.45 1.52 1.53 1.55 1.51 1.43 1.41 1.42 1.52 1.64 1.66 1.76 1.86 1.93 2.06 2.07 1.97 1.91
0.63 0.44 0.48 0.60 0.61 0.65 0.81 0.89 0.94 0.75 0.82 0.82 0.82 0.77 0.75 0.74 0.75 0.82 0.90 0.97 1.01 1.03 1.01 1.02 1.09 1.19 1.23 1.33 1.40 1.44 1.43 1.43 1.39 1.36 1.39 1.48 1.50 1.53 1.61 1.73 1.87 1.97 2.01 1.97
0.76 0.46 0.61 0.80 0.76 0.77 0.84 0.90 0.94 1.05 1.00 0.75 0.70 0.73 0.78 0.74 0.69 0.74 0.82 0.87 0.89 0.93 0.97 1.00 1.03 1.05 1.11 1.18 1.24 1.31 1.33 1.34 1.39 1.43 1.43 1.45 1.46 1.46 1.54 1.64 1.77 1.89 1.96 2.00
0.97 0.65 0.86 0.82 0.61 0.66 0.75 0.82 0.85 0.92 0.87 0.77 0.76 0.77 0.77 0.73 0.72 0.70 0.74 0.84 0.88 0.89 0.90 0.92 0.95 0.96 0.97 1.01 1.08 1.17 1.21 1.25 1.29 1.37 1.41 1.40 1.43 1.45 1.51 1.58 1.69 1.80 1.87 1.86
1.22 0.86 0.62 0.50 0.46 0.69 0.80 0.88 0.83 0.80 0.75 0.71 0.63 0.57 0.63 0.62 0.67 0.75 0.76 0.83 0.90 0.92 0.91 0.87 0.86 0.90 0.92 0.94 0.98 1.05 1.16 1.27 1.30 1.36 1.40 1.42 1.48 1.49 1.50 1.58 1.66 1.65 1.69 1.72
1.28 1.07 0.71 0.57 0.38 0.43 0.65 0.95 0.66 0.65 0.70 0.70 0.63 0.75 0.77 0.70 0.69 0.71 0.69 0.72 0.80 0.83 0.84 0.84 0.88 0.91 0.95 1.00 1.01 1.10 1.20 1.31 1.33 1.36 1.45 1.48 1.48 1.50 1.49 1.54 1.63 1.59 1.55 1.53
1.02 1.02 0.66 0.52 0.32 0.31 0.84 1.12 0.66 0.65 0.71 0.72 0.82 0.95 0.87 0.76 0.73 0.72 0.72 0.72 0.73 0.74 0.80 0.94 1.01 1.02 1.04 1.06 1.14 1.22 1.25 1.30 1.32 1.31 1.38 1.43 1.40 1.40 1.44 1.48 1.49 1.44 1.39 1.37
0.77 1.03 0.83 0.50 0.39 0.73 0.99 0.67 0.60 0.59 0.64 0.71 0.76 0.71 0.72 0.74 0.74 0.70 0.73 0.70 0.68 0.70 0.76 0.83 0.95 1.05 1.10 1.15 1.17 1.15 1.16 1.23 1.34 1.33 1.32 1.34 1.36 1.36 1.40 1.40 1.37 1.32 1.26 1.25
0.84 0.93 0.84 0.68 0.73 0.78 0.70 0.64 0.58 0.62 0.62 0.63 0.66 0.64 0.66 0.69 0.67 0.65 0.68 0.69 0.67 0.69 0.70 0.68 0.76 0.91 1.08 1.18 1.20 1.20 1.18 1.22 1.29 1.31 1.32 1.36 1.35 1.36 1.36 1.33 1.29 1.23 1.17 1.15
0.65 0.63 0.58 0.58 0.55 0.56 0.59 0.64 0.59 0.56 0.55 0.54 0.59 0.59 0.60 0.60 0.60 0.60 0.60 0.63 0.65 0.65 0.63 0.65 0.69 0.75 0.89 1.00 1.09 1.17 1.21 1.21 1.23 1.29 1.31 1.31 1.30 1.33 1.35 1.38 1.35 1.26 1.20 1.17
0.54 0.48 0.46 0.46 0.47 0.50 0.48 0.44 0.40 0.38 0.39 0.46 0.53 0.55 0.57 0.60 0.61 0.62 0.62 0.62 0.65 0.65 0.62 0.64 0.64 0.67 0.72 0.79 0.89 0.98 1.06 1.11 1.13 1.17 1.25 1.27 1.27 1.33 1.39 1.42 1.51 1.54 1.45 1.34
0.68 0.52 0.60 0.55 0.43 0.39 0.38 0.36 0.36 0.34 0.33 0.36 0.43 0.49 0.47 0.50 0.55 0.62 0.63 0.62 0.62 0.60 0.59 0.61 0.62 0.66 0.68 0.72 0.80 0.86 0.92 0.97 1.01 1.07 1.12 1.15 1.16 1.22 1.32 1.36 1.42 1.45 1.47 1.47
0.64 0.47 0.45 0.42 0.34 0.32 0.34 0.34 0.34 0.36 0.39 0.41 0.38 0.41 0.45 0.48 0.49 0.51 0.54 0.56 0.61 0.63 0.61 0.59 0.57 0.60 0.66 0.71 0.74 0.76 0.84 0.90 0.93 0.96 1.02 1.06 1.07 1.08 1.15 1.18 1.18 1.22 1.30 1.38
0.45 0.42 0.39 0.31 0.33 0.31 0.32 0.33 0.32 0.32 0.33 0.32 0.33 0.35 0.40 0.42 0.41 0.43 0.52 0.59 0.61 0.59 0.56 0.55 0.54 0.56 0.61 0.66 0.69 0.67 0.70 0.78 0.85 0.87 0.91 0.96 0.99 1.02 1.05 1.07 1.07 1.09 1.15 1.25
0.35 0.39 0.43 0.36 0.30 0.29 0.30 0.30 0.31 0.28 0.25 0.26 0.27 0.31 0.36 0.40 0.43 0.47 0.51 0.54 0.51 0.49 0.49 0.49 0.50 0.56 0.60 0.63 0.64 0.63 0.63 0.68 0.74 0.79 0.81 0.86 0.89 0.94 0.97 0.97 0.98 0.99 0.97 1.06
0.38 0.34 0.32 0.31 0.32 0.33 0.33 0.33 0.31 0.29 0.29 0.29 0.30 0.34 0.37 0.40 0.43 0.45 0.45 0.46 0.48 0.51 0.51 0.48 0.50 0.55 0.56 0.57 0.57 0.57 0.58 0.66 0.72 0.73 0.72 0.76 0.78 0.83 0.87 0.89 0.90 0.90 0.92 1.00
0.46 0.42 0.39 0.40 0.39 0.37 0.35 0.35 0.37 0.36 0.33 0.33 0.35 0.35 0.35 0.34 0.34 0.37 0.42 0.46 0.50 0.54 0.54 0.55 0.58 0.55 0.54 0.54 0.56 0.57 0.56 0.58 0.64 0.63 0.62 0.66 0.70 0.73 0.78 0.81 0.81 0.81 0.87 0.98
0.51 0.52 0.52 0.54 0.50 0.43 0.36 0.34 0.35 0.36 0.37 0.37 0.35 0.32 0.33 0.36 0.39 0.41 0.45 0.46 0.44 0.44 0.47 0.53 0.57 0.54 0.49 0.51 0.54 0.55 0.57 0.58 0.58 0.60 0.61 0.64 0.69 0.71 0.75 0.78 0.75 0.74 0.75 0.81
0.42 0.42 0.42 0.42 0.42 0.41 0.38 0.38 0.39 0.38 0.37 0.37 0.36 0.35 0.35 0.38 0.40 0.41 0.41 0.39 0.40 0.45 0.48 0.49 0.54 0.46 0.42 0.45 0.55 0.54 0.55 0.57 0.57 0.58 0.62 0.69 0.71 0.67 0.69 0.71 0.70 0.68 0.69 0.71
0.36 0.36 0.35 0.35 0.34 0.37 0.39 0.39 0.38 0.37 0.38 0.39 0.38 0.36 0.35 0.35 0.36 0.36 0.35 0.36 0.43 0.51 0.51 0.51 0.46 0.41 0.43 0.47 0.55 0.53 0.53 0.54 0.57 0.57 0.59 0.64 0.66 0.66 0.67 0.69 0.69 0.67 0.67 0.69
0.34 0.35 0.35 0.36 0.36 0.37 0.40 0.42 0.42 0.43 0.43 0.41 0.42 0.42 0.40 0.37 0.35 0.34 0.34 0.36 0.39 0.40 0.42 0.45 0.43 0.45 0.52 0.59 0.60 0.54 0.53 0.56 0.58 0.60 0.61 0.62 0.64 0.65 0.65 0.66 0.67 0.68 0.68 0.69
0.34 0.36 0.36 0.37 0.37 0.38 0.40 0.42 0.43 0.42 0.40 0.39 0.39 0.38 0.37 0.36 0.34 0.33 0.33 0.39 0.42 0.44 0.43 0.40 0.44 0.57 0.68 0.69 0.59 0.55 0.56 0.58 0.61 0.61 0.62 0.62 0.63 0.64 0.62 0.62 0.64 0.65 0.66 0.67
0.34 0.35 0.36 0.39 0.41 0.40 0.37 0.37 0.39 0.39 0.38 0.38 0.39 0.39 0.40 0.39 0.37 0.38 0.41 0.38 0.38 0.43 0.43 0.44 0.54 0.66 0.70 0.62 0.53 0.52 0.55 0.58 0.61 0.62 0.63 0.62 0.63 0.65 0.67 0.64 0.63 0.64 0.65 0.65
0.30 0.32 0.34 0.36 0.36 0.34 0.35 0.36 0.36 0.37 0.37 0.36 0.37 0.38 0.39 0.38 0.34 0.34 0.38 0.39 0.39 0.41 0.40 0.44 0.53 0.58 0.59 0.53 0.51 0.53 0.55 0.57 0.59 0.60 0.60 0.61 0.62 0.64 0.65 0.64 0.63 0.59 0.59 0.60
0.31 0.32 0.33 0.34 0.34 0.36 0.38 0.36 0.32 0.32 0.32 0.32 0.31 0.31 0.33 0.36 0.39 0.36 0.33 0.33 0.36 0.39 0.37 0.39 0.43 0.46 0.46 0.47 0.51 0.55 0.58 0.61 0.64 0.66 0.64 0.64 0.63 0.63 0.63 0.63 0.63 0.61 0.59 0.57
0.30 0.31 0.33 0.35 0.38 0.40 0.39 0.37 0.35 0.34 0.35 0.34 0.32 0.31 0.32 0.33 0.34 0.33 0.31 0.31 0.33 0.37 0.36 0.37 0.38 0.40 0.41 0.44 0.48 0.52 0.55 0.57 0.59 0.59 0.59 0.60 0.61 0.62 0.61 0.59 0.58 0.59 0.58 0.56
0.25 0.26 0.27 0.28 0.30 0.34 0.37 0.37 0.39 0.39 0.39 0.40 0.40 0.35 0.34 0.34 0.34 0.33 0.33 0.33 0.34 0.35 0.35 0.37 0.39 0.41 0.43 0.44 0.46 0.48 0.50 0.52 0.54 0.56 0.57 0.59 0.60 0.61 0.59 0.58 0.57 0.56 0.55 0.54